Ver�ffentlichungspflichtige Lastg�nge mit Arbeit und H�chstleistung;
Verordnung;StromNZV
;�12
;Abs. 3
;Satz 3
Lastgang;"Ergebnis der
Differenz
bilanzierung"
Netz- oder Umspannebenen;
Arbeit des Lastganges [kWh];1
H�chstleistung [kW];2619
;
01.01.2020 00:15;-1856,6
01.01.2020 00:30;-1640,1
01.01.2020 00:45;-1346,6
01.01.2020 01:00;-1051,5
01.01.2020 01:15;-905,2
01.01.2020 01:30;-663,4
01.01.2020 01:45;-501,9
01.01.2020 02:00;-266,5
01.01.2020 02:15;-193,5
01.01.2020 02:30;-300,5
01.01.2020 02:45;-416,2
01.01.2020 03:00;-559,1
01.01.2020 03:15;-667
01.01.2020 03:30;-759,4
01.01.2020 03:45;-859,9
01.01.2020 04:00;-977,7
01.01.2020 04:15;-1120,9
01.01.2020 04:30;-1248,3
01.01.2020 04:45;-1346
01.01.2020 05:00;-1471,7
01.01.2020 05:15;-1547,7
01.01.2020 05:30;-1672,6
01.01.2020 05:45;-1708,6
01.01.2020 06:00;-1762,5
01.01.2020 06:15;973,6
01.01.2020 06:30;954,6
01.01.2020 06:45;926,4
01.01.2020 07:00;907,1
01.01.2020 07:15;924,8
01.01.2020 07:30;902,1
01.01.2020 07:45;879,8
01.01.2020 08:00;795,4
01.01.2020 08:15;1188
01.01.2020 08:30;984,9
01.01.2020 08:45;860,5
01.01.2020 09:00;743,5
01.01.2020 09:15;-117,2
01.01.2020 09:30;-359,1
01.01.2020 09:45;-562,9
01.01.2020 10:00;-696,8
01.01.2020 10:15;-793,7
01.01.2020 10:30;-823,9
01.01.2020 10:45;-123,8
01.01.2020 11:00;-96,9
01.01.2020 11:15;-194,8
01.01.2020 11:30;-169,5
01.01.2020 11:45;-164,6
01.01.2020 12:00;-310,3
01.01.2020 12:15;-1110,7
01.01.2020 12:30;-1173,7
01.01.2020 12:45;-1136,9
01.01.2020 13:00;-1157,8
01.01.2020 13:15;-1161,9
01.01.2020 13:30;-1012,7
01.01.2020 13:45;-814,5
01.01.2020 14:00;-583,8
01.01.2020 14:15;-351,1
01.01.2020 14:30;-162
01.01.2020 14:45;-13,5
01.01.2020 15:00;194,8
01.01.2020 15:15;351,2
01.01.2020 15:30;468
01.01.2020 15:45;495,2
01.01.2020 16:00;617,2
01.01.2020 16:15;790,6
01.01.2020 16:30;976,8
01.01.2020 16:45;1191
01.01.2020 17:00;1368,7
01.01.2020 17:15;1366,1
01.01.2020 17:30;1317,7
01.01.2020 17:45;2017,4
01.01.2020 18:00;1794,6
01.01.2020 18:15;1752,6
01.01.2020 18:30;1563,5
01.01.2020 18:45;1420,5
01.01.2020 19:00;1262
01.01.2020 19:15;301,5
01.01.2020 19:30;36,6
01.01.2020 19:45;-117,2
01.01.2020 20:00;-145
01.01.2020 20:15;-52,9
01.01.2020 20:30;-58,6
01.01.2020 20:45;60,7
01.01.2020 21:00;137,3
01.01.2020 21:15;144,6
01.01.2020 21:30;168,1
01.01.2020 21:45;213,3
01.01.2020 22:00;269,2
01.01.2020 22:15;-3006,7
01.01.2020 22:30;-2969,5
01.01.2020 22:45;-2991,5
01.01.2020 23:00;-2794,3
01.01.2020 23:15;-2629,5
01.01.2020 23:30;-2429,3
01.01.2020 23:45;-2210,4
02.01.2020 00:00;-2059,4
02.01.2020 00:15;-1970,1
02.01.2020 00:30;-1773
02.01.2020 00:45;-1569,9
02.01.2020 01:00;-1348,4
02.01.2020 01:15;-1190,4
02.01.2020 01:30;-956,2
02.01.2020 01:45;-801,6
02.01.2020 02:00;-584,5
02.01.2020 02:15;-490
02.01.2020 02:30;-596,6
02.01.2020 02:45;-727,2
02.01.2020 03:00;-835
02.01.2020 03:15;-878,9
02.01.2020 03:30;-930,5
02.01.2020 03:45;-1015,1
02.01.2020 04:00;-1066,3
02.01.2020 04:15;-1135,7
02.01.2020 04:30;-1244,6
02.01.2020 04:45;-1359,6
02.01.2020 05:00;-1466,5
02.01.2020 05:15;-1551,1
02.01.2020 05:30;-1630,4
02.01.2020 05:45;-1788,7
02.01.2020 06:00;-1943,8
02.01.2020 06:15;615,9
02.01.2020 06:30;312,8
02.01.2020 06:45;-9,4
02.01.2020 07:00;-218,9
02.01.2020 07:15;-392,3
02.01.2020 07:30;-469,3
02.01.2020 07:45;-541,3
02.01.2020 08:00;-633,6
02.01.2020 08:15;-89
02.01.2020 08:30;-140,2
02.01.2020 08:45;-99
02.01.2020 09:00;56,7
02.01.2020 09:15;-576,9
02.01.2020 09:30;-560,6
02.01.2020 09:45;-474,3
02.01.2020 10:00;-471,5
02.01.2020 10:15;-406,6
02.01.2020 10:30;-448,7
02.01.2020 10:45;313,9
02.01.2020 11:00;287,6
02.01.2020 11:15;315,1
02.01.2020 11:30;382,5
02.01.2020 11:45;480,6
02.01.2020 12:00;454,1
02.01.2020 12:15;-236,1
02.01.2020 12:30;-262,9
02.01.2020 12:45;-263
02.01.2020 13:00;-401,1
02.01.2020 13:15;-417,3
02.01.2020 13:30;-503,1
02.01.2020 13:45;-426
02.01.2020 14:00;-268
02.01.2020 14:15;-240,4
02.01.2020 14:30;-134,8
02.01.2020 14:45;-85,1
02.01.2020 15:00;-11,3
02.01.2020 15:15;50,1
02.01.2020 15:30;124,4
02.01.2020 15:45;144,2
02.01.2020 16:00;288,1
02.01.2020 16:15;346,6
02.01.2020 16:30;435,4
02.01.2020 16:45;679,8
02.01.2020 17:00;745,3
02.01.2020 17:15;754,4
02.01.2020 17:30;726,4
02.01.2020 17:45;1256
02.01.2020 18:00;1167,4
02.01.2020 18:15;1038,2
02.01.2020 18:30;826,3
02.01.2020 18:45;711,2
02.01.2020 19:00;633
02.01.2020 19:15;-262,3
02.01.2020 19:30;-309,2
02.01.2020 19:45;-365,6
02.01.2020 20:00;-213
02.01.2020 20:15;-219,6
02.01.2020 20:30;-166,3
02.01.2020 20:45;-15,6
02.01.2020 21:00;65,5
02.01.2020 21:15;127,4
02.01.2020 21:30;111,9
02.01.2020 21:45;120,9
02.01.2020 22:00;238,3
02.01.2020 22:15;-2956,3
02.01.2020 22:30;-2946,2
02.01.2020 22:45;-2976,8
02.01.2020 23:00;-2800,7
02.01.2020 23:15;-2702,2
02.01.2020 23:30;-2478,1
02.01.2020 23:45;-2269,1
03.01.2020 00:00;-2010
03.01.2020 00:15;-1323,2
03.01.2020 00:30;-1162,3
03.01.2020 00:45;-1014,9
03.01.2020 01:00;-858,8
03.01.2020 01:15;-768
03.01.2020 01:30;-590,6
03.01.2020 01:45;-479,3
03.01.2020 02:00;-343,7
03.01.2020 02:15;-257,5
03.01.2020 02:30;-332
03.01.2020 02:45;-390,2
03.01.2020 03:00;-427,7
03.01.2020 03:15;-448,2
03.01.2020 03:30;-567,9
03.01.2020 03:45;-613,6
03.01.2020 04:00;-666
03.01.2020 04:15;-708,9
03.01.2020 04:30;-867,3
03.01.2020 04:45;-1022,9
03.01.2020 05:00;-1102,4
03.01.2020 05:15;-1155
03.01.2020 05:30;-1250,6
03.01.2020 05:45;-1382,7
03.01.2020 06:00;-1521,5
03.01.2020 06:15;698,4
03.01.2020 06:30;354,2
03.01.2020 06:45;130,3
03.01.2020 07:00;-144,9
03.01.2020 07:15;-360,3
03.01.2020 07:30;-431,2
03.01.2020 07:45;-461,8
03.01.2020 08:00;-577,3
03.01.2020 08:15;-139,8
03.01.2020 08:30;-142,3
03.01.2020 08:45;-168,2
03.01.2020 09:00;-11,9
03.01.2020 09:15;-526,8
03.01.2020 09:30;-384,4
03.01.2020 09:45;-200,1
03.01.2020 10:00;-136,9
03.01.2020 10:15;-12,7
03.01.2020 10:30;-15,3
03.01.2020 10:45;437,4
03.01.2020 11:00;631,8
03.01.2020 11:15;764,3
03.01.2020 11:30;1020,5
03.01.2020 11:45;1028,3
03.01.2020 12:00;1115,3
03.01.2020 12:15;476,5
03.01.2020 12:30;365,3
03.01.2020 12:45;328,5
03.01.2020 13:00;147,2
03.01.2020 13:15;69,7
03.01.2020 13:30;109,5
03.01.2020 13:45;93,5
03.01.2020 14:00;197,7
03.01.2020 14:15;265,9
03.01.2020 14:30;325,3
03.01.2020 14:45;441,4
03.01.2020 15:00;493,9
03.01.2020 15:15;476,2
03.01.2020 15:30;588,7
03.01.2020 15:45;530,2
03.01.2020 16:00;636,3
03.01.2020 16:15;637,1
03.01.2020 16:30;755
03.01.2020 16:45;847,5
03.01.2020 17:00;913
03.01.2020 17:15;811,5
03.01.2020 17:30;757,6
03.01.2020 17:45;1244
03.01.2020 18:00;1149,8
03.01.2020 18:15;954,7
03.01.2020 18:30;757
03.01.2020 18:45;664,9
03.01.2020 19:00;536,2
03.01.2020 19:15;-121,7
03.01.2020 19:30;-194,2
03.01.2020 19:45;-217,6
03.01.2020 20:00;-223,2
03.01.2020 20:15;-153,6
03.01.2020 20:30;-106,6
03.01.2020 20:45;-29,2
03.01.2020 21:00;-14
03.01.2020 21:15;59,2
03.01.2020 21:30;144,7
03.01.2020 21:45;178,7
03.01.2020 22:00;257,1
03.01.2020 22:15;-2448,8
03.01.2020 22:30;-2434
03.01.2020 22:45;-2399,6
03.01.2020 23:00;-2229,7
03.01.2020 23:15;-2102
03.01.2020 23:30;-1928,2
03.01.2020 23:45;-1740,3
04.01.2020 00:00;-1558,8
04.01.2020 00:15;-1658
04.01.2020 00:30;-1677,8
04.01.2020 00:45;-1623,6
04.01.2020 01:00;-1469,5
04.01.2020 01:15;-1356,7
04.01.2020 01:30;-1145,8
04.01.2020 01:45;-931
04.01.2020 02:00;-695,3
04.01.2020 02:15;-637,1
04.01.2020 02:30;-680,6
04.01.2020 02:45;-753,1
04.01.2020 03:00;-795,8
04.01.2020 03:15;-837,1
04.01.2020 03:30;-912,4
04.01.2020 03:45;-1002,9
04.01.2020 04:00;-1046,7
04.01.2020 04:15;-1114
04.01.2020 04:30;-1221
04.01.2020 04:45;-1318,8
04.01.2020 05:00;-1401,8
04.01.2020 05:15;-1435,9
04.01.2020 05:30;-1510,6
04.01.2020 05:45;-1534
04.01.2020 06:00;-1601,9
04.01.2020 06:15;863,8
04.01.2020 06:30;824,9
04.01.2020 06:45;712,7
04.01.2020 07:00;659
04.01.2020 07:15;515,6
04.01.2020 07:30;322,5
04.01.2020 07:45;150,6
04.01.2020 08:00;19
04.01.2020 08:15;467
04.01.2020 08:30;335,4
04.01.2020 08:45;272
04.01.2020 09:00;172
04.01.2020 09:15;-532,1
04.01.2020 09:30;-566
04.01.2020 09:45;-519,8
04.01.2020 10:00;-409,2
04.01.2020 10:15;-417,7
04.01.2020 10:30;-346,7
04.01.2020 10:45;386,3
04.01.2020 11:00;428,8
04.01.2020 11:15;532,6
04.01.2020 11:30;616,3
04.01.2020 11:45;679,9
04.01.2020 12:00;777,9
04.01.2020 12:15;-2,3
04.01.2020 12:30;-199,9
04.01.2020 12:45;-244,7
04.01.2020 13:00;-272
04.01.2020 13:15;-411,1
04.01.2020 13:30;-320,2
04.01.2020 13:45;-219,2
04.01.2020 14:00;-226,2
04.01.2020 14:15;-247,6
04.01.2020 14:30;-80,6
04.01.2020 14:45;137
04.01.2020 15:00;317,4
04.01.2020 15:15;465,9
04.01.2020 15:30;527,5
04.01.2020 15:45;609,4
04.01.2020 16:00;635,1
04.01.2020 16:15;795,3
04.01.2020 16:30;761,5
04.01.2020 16:45;938,1
04.01.2020 17:00;972,1
04.01.2020 17:15;878
04.01.2020 17:30;663
04.01.2020 17:45;1082,6
04.01.2020 18:00;935,2
04.01.2020 18:15;854,6
04.01.2020 18:30;638,8
04.01.2020 18:45;527,1
04.01.2020 19:00;448,3
04.01.2020 19:15;-323,2
04.01.2020 19:30;-370,9
04.01.2020 19:45;-329,6
04.01.2020 20:00;-404,8
04.01.2020 20:15;-317
04.01.2020 20:30;-53,6
04.01.2020 20:45;141,1
04.01.2020 21:00;239,7
04.01.2020 21:15;429,5
04.01.2020 21:30;430,1
04.01.2020 21:45;373,8
04.01.2020 22:00;387,1
04.01.2020 22:15;-2589,4
04.01.2020 22:30;-2542,9
04.01.2020 22:45;-2651,1
04.01.2020 23:00;-2516,7
04.01.2020 23:15;-2448,4
04.01.2020 23:30;-2271,3
04.01.2020 23:45;-2065,4
05.01.2020 00:00;-1872,3
05.01.2020 00:15;-2146,7
05.01.2020 00:30;-2007,3
05.01.2020 00:45;-1842,9
05.01.2020 01:00;-1685,2
05.01.2020 01:15;-1538,4
05.01.2020 01:30;-1299,2
05.01.2020 01:45;-1040,8
05.01.2020 02:00;-848,3
05.01.2020 02:15;-804,5
05.01.2020 02:30;-848,2
05.01.2020 02:45;-919,3
05.01.2020 03:00;-975
05.01.2020 03:15;-1028
05.01.2020 03:30;-1110,8
05.01.2020 03:45;-1191,4
05.01.2020 04:00;-1204,9
05.01.2020 04:15;-1301,4
05.01.2020 04:30;-1467,3
05.01.2020 04:45;-1619,9
05.01.2020 05:00;-1709,9
05.01.2020 05:15;-1753,3
05.01.2020 05:30;-1846,5
05.01.2020 05:45;-1861,7
05.01.2020 06:00;-1873,1
05.01.2020 06:15;965
05.01.2020 06:30;922,9
05.01.2020 06:45;965,9
05.01.2020 07:00;1012,5
05.01.2020 07:15;979,5
05.01.2020 07:30;1009,6
05.01.2020 07:45;1123,5
05.01.2020 08:00;1011,8
05.01.2020 08:15;1561,3
05.01.2020 08:30;1530
05.01.2020 08:45;1445,2
05.01.2020 09:00;1394,2
05.01.2020 09:15;594,4
05.01.2020 09:30;404
05.01.2020 09:45;257,9
05.01.2020 10:00;201,7
05.01.2020 10:15;116,4
05.01.2020 10:30;92,5
05.01.2020 10:45;891,5
05.01.2020 11:00;927,3
05.01.2020 11:15;1016,8
05.01.2020 11:30;1147,5
05.01.2020 11:45;1257,6
05.01.2020 12:00;1285,9
05.01.2020 12:15;235,7
05.01.2020 12:30;-32,3
05.01.2020 12:45;-256,4
05.01.2020 13:00;-450,7
05.01.2020 13:15;-640,4
05.01.2020 13:30;-467,7
05.01.2020 13:45;-257,9
05.01.2020 14:00;-71,1
05.01.2020 14:15;52,8
05.01.2020 14:30;226,5
05.01.2020 14:45;388,5
05.01.2020 15:00;499,6
05.01.2020 15:15;675,7
05.01.2020 15:30;809,9
05.01.2020 15:45;784,8
05.01.2020 16:00;951,7
05.01.2020 16:15;1044,1
05.01.2020 16:30;1234,6
05.01.2020 16:45;1467,8
05.01.2020 17:00;1660,5
05.01.2020 17:15;1591
05.01.2020 17:30;1593,9
05.01.2020 17:45;2215,3
05.01.2020 18:00;2168,6
05.01.2020 18:15;1927,5
05.01.2020 18:30;1671,3
05.01.2020 18:45;1502,4
05.01.2020 19:00;1251,5
05.01.2020 19:15;391,2
05.01.2020 19:30;189,5
05.01.2020 19:45;22,6
05.01.2020 20:00;-64
05.01.2020 20:15;-145,3
05.01.2020 20:30;-49,3
05.01.2020 20:45;32,2
05.01.2020 21:00;109,6
05.01.2020 21:15;122,6
05.01.2020 21:30;134,2
05.01.2020 21:45;65,5
05.01.2020 22:00;125,6
05.01.2020 22:15;-3181
05.01.2020 22:30;-3217,8
05.01.2020 22:45;-3202,7
05.01.2020 23:00;-3048,4
05.01.2020 23:15;-2968
05.01.2020 23:30;-2725
05.01.2020 23:45;-2537,9
06.01.2020 00:00;-2375,3
06.01.2020 00:15;-2082,1
06.01.2020 00:30;-1866,3
06.01.2020 00:45;-1640,2
06.01.2020 01:00;-1475,3
06.01.2020 01:15;-1305,6
06.01.2020 01:30;-1072,6
06.01.2020 01:45;-921,1
06.01.2020 02:00;-716
06.01.2020 02:15;-644,3
06.01.2020 02:30;-757
06.01.2020 02:45;-828,5
06.01.2020 03:00;-902,1
06.01.2020 03:15;-944,7
06.01.2020 03:30;-1037
06.01.2020 03:45;-1088,4
06.01.2020 04:00;-1153
06.01.2020 04:15;-1206,3
06.01.2020 04:30;-1301,3
06.01.2020 04:45;-1404,9
06.01.2020 05:00;-1488,2
06.01.2020 05:15;-1486,9
06.01.2020 05:30;-1532,1
06.01.2020 05:45;-1473,2
06.01.2020 06:00;-1567,4
06.01.2020 06:15;938,8
06.01.2020 06:30;747,6
06.01.2020 06:45;476,7
06.01.2020 07:00;-8,3
06.01.2020 07:15;-115,7
06.01.2020 07:30;-242,9
06.01.2020 07:45;-379
06.01.2020 08:00;-411
06.01.2020 08:15;113,8
06.01.2020 08:30;-22,9
06.01.2020 08:45;-70,5
06.01.2020 09:00;-56,2
06.01.2020 09:15;-716,3
06.01.2020 09:30;-747,3
06.01.2020 09:45;-662,8
06.01.2020 10:00;-567,1
06.01.2020 10:15;-593,5
06.01.2020 10:30;-579
06.01.2020 10:45;154,1
06.01.2020 11:00;48,4
06.01.2020 11:15;216,2
06.01.2020 11:30;330,6
06.01.2020 11:45;271,5
06.01.2020 12:00;331,6
06.01.2020 12:15;-363,2
06.01.2020 12:30;-377,3
06.01.2020 12:45;-465,6
06.01.2020 13:00;-643,8
06.01.2020 13:15;-665,5
06.01.2020 13:30;-647
06.01.2020 13:45;-517,2
06.01.2020 14:00;-321,3
06.01.2020 14:15;-206,7
06.01.2020 14:30;-193,8
06.01.2020 14:45;-162,4
06.01.2020 15:00;14,1
06.01.2020 15:15;70,1
06.01.2020 15:30;-5,7
06.01.2020 15:45;73
06.01.2020 16:00;59,4
06.01.2020 16:15;195,9
06.01.2020 16:30;399,7
06.01.2020 16:45;460,1
06.01.2020 17:00;682,3
06.01.2020 17:15;813,3
06.01.2020 17:30;669,6
06.01.2020 17:45;1363,2
06.01.2020 18:00;1307,9
06.01.2020 18:15;1072,7
06.01.2020 18:30;1029,5
06.01.2020 18:45;794,4
06.01.2020 19:00;767,6
06.01.2020 19:15;57,9
06.01.2020 19:30;-115,3
06.01.2020 19:45;-239,5
06.01.2020 20:00;-168,9
06.01.2020 20:15;-179,9
06.01.2020 20:30;-148,1
06.01.2020 20:45;-20,2
06.01.2020 21:00;23,5
06.01.2020 21:15;87,7
06.01.2020 21:30;74,3
06.01.2020 21:45;74,8
06.01.2020 22:00;60,2
06.01.2020 22:15;-3050,9
06.01.2020 22:30;-2942,3
06.01.2020 22:45;-2936,7
06.01.2020 23:00;-2858,5
06.01.2020 23:15;-2720,6
06.01.2020 23:30;-2507,6
06.01.2020 23:45;-2338,4
07.01.2020 00:00;-2106,8
07.01.2020 00:15;-1909
07.01.2020 00:30;-1643,7
07.01.2020 00:45;-1428,9
07.01.2020 01:00;-1252,5
07.01.2020 01:15;-1097
07.01.2020 01:30;-931,6
07.01.2020 01:45;-730,2
07.01.2020 02:00;-561,5
07.01.2020 02:15;-550,2
07.01.2020 02:30;-631,4
07.01.2020 02:45;-716,5
07.01.2020 03:00;-819,3
07.01.2020 03:15;-832
07.01.2020 03:30;-891,3
07.01.2020 03:45;-921,4
07.01.2020 04:00;-979,5
07.01.2020 04:15;-1062,8
07.01.2020 04:30;-1106,1
07.01.2020 04:45;-1184,4
07.01.2020 05:00;-1328,2
07.01.2020 05:15;-1367,6
07.01.2020 05:30;-1357,7
07.01.2020 05:45;-1441,5
07.01.2020 06:00;-1541,2
07.01.2020 06:15;1001
07.01.2020 06:30;867
07.01.2020 06:45;660,1
07.01.2020 07:00;241,1
07.01.2020 07:15;76,8
07.01.2020 07:30;91,4
07.01.2020 07:45;-51,7
07.01.2020 08:00;-130,8
07.01.2020 08:15;429,1
07.01.2020 08:30;147
07.01.2020 08:45;40,3
07.01.2020 09:00;54,2
07.01.2020 09:15;-627
07.01.2020 09:30;-633
07.01.2020 09:45;-506
07.01.2020 10:00;-343,6
07.01.2020 10:15;-241,1
07.01.2020 10:30;-311,9
07.01.2020 10:45;308,3
07.01.2020 11:00;401,4
07.01.2020 11:15;287
07.01.2020 11:30;210,9
07.01.2020 11:45;365,6
07.01.2020 12:00;593,7
07.01.2020 12:15;-89,8
07.01.2020 12:30;-218
07.01.2020 12:45;-376,1
07.01.2020 13:00;-339,6
07.01.2020 13:15;-368,6
07.01.2020 13:30;-236,8
07.01.2020 13:45;-135,4
07.01.2020 14:00;44,1
07.01.2020 14:15;111,3
07.01.2020 14:30;68,8
07.01.2020 14:45;149,2
07.01.2020 15:00;198,6
07.01.2020 15:15;255
07.01.2020 15:30;280,9
07.01.2020 15:45;267,3
07.01.2020 16:00;251,9
07.01.2020 16:15;341,8
07.01.2020 16:30;451,4
07.01.2020 16:45;533,1
07.01.2020 17:00;721,9
07.01.2020 17:15;867,7
07.01.2020 17:30;809,1
07.01.2020 17:45;1444,2
07.01.2020 18:00;1277,3
07.01.2020 18:15;1138,8
07.01.2020 18:30;980,7
07.01.2020 18:45;711,2
07.01.2020 19:00;619,3
07.01.2020 19:15;-117,6
07.01.2020 19:30;-195,9
07.01.2020 19:45;-319,8
07.01.2020 20:00;-271,3
07.01.2020 20:15;-269,7
07.01.2020 20:30;-147,8
07.01.2020 20:45;-124,5
07.01.2020 21:00;-36,6
07.01.2020 21:15;6,2
07.01.2020 21:30;36,9
07.01.2020 21:45;45,7
07.01.2020 22:00;-7,5
07.01.2020 22:15;-3091,3
07.01.2020 22:30;-3045,1
07.01.2020 22:45;-3026,4
07.01.2020 23:00;-2850,1
07.01.2020 23:15;-2773,4
07.01.2020 23:30;-2521,6
07.01.2020 23:45;-2323,9
08.01.2020 00:00;-2131,2
08.01.2020 00:15;-1573,1
08.01.2020 00:30;-1383,8
08.01.2020 00:45;-1236,6
08.01.2020 01:00;-1071
08.01.2020 01:15;-926,9
08.01.2020 01:30;-756,8
08.01.2020 01:45;-608,1
08.01.2020 02:00;-434,3
08.01.2020 02:15;-400,4
08.01.2020 02:30;-463,3
08.01.2020 02:45;-528
08.01.2020 03:00;-588,6
08.01.2020 03:15;-624,7
08.01.2020 03:30;-665,7
08.01.2020 03:45;-761
08.01.2020 04:00;-769
08.01.2020 04:15;-774,3
08.01.2020 04:30;-878,4
08.01.2020 04:45;-941,2
08.01.2020 05:00;-1024,2
08.01.2020 05:15;-1007,3
08.01.2020 05:30;-1086,7
08.01.2020 05:45;-1173,5
08.01.2020 06:00;-1205,1
08.01.2020 06:15;984,3
08.01.2020 06:30;755,4
08.01.2020 06:45;535,8
08.01.2020 07:00;268,9
08.01.2020 07:15;153,7
08.01.2020 07:30;-0,7
08.01.2020 07:45;-127,3
08.01.2020 08:00;-154,1
08.01.2020 08:15;304,6
08.01.2020 08:30;276,8
08.01.2020 08:45;287,2
08.01.2020 09:00;275,7
08.01.2020 09:15;-217,4
08.01.2020 09:30;-109,9
08.01.2020 09:45;-92,9
08.01.2020 10:00;-44,8
08.01.2020 10:15;23,5
08.01.2020 10:30;-61,5
08.01.2020 10:45;543,3
08.01.2020 11:00;604,9
08.01.2020 11:15;590,5
08.01.2020 11:30;637,2
08.01.2020 11:45;617
08.01.2020 12:00;720,8
08.01.2020 12:15;162
08.01.2020 12:30;62,5
08.01.2020 12:45;-18,8
08.01.2020 13:00;-93,6
08.01.2020 13:15;-111,3
08.01.2020 13:30;-225,3
08.01.2020 13:45;-100,3
08.01.2020 14:00;99,5
08.01.2020 14:15;207,7
08.01.2020 14:30;316,4
08.01.2020 14:45;321,5
08.01.2020 15:00;357,8
08.01.2020 15:15;431,4
08.01.2020 15:30;358,1
08.01.2020 15:45;272,4
08.01.2020 16:00;320,3
08.01.2020 16:15;459,4
08.01.2020 16:30;622
08.01.2020 16:45;771,5
08.01.2020 17:00;961
08.01.2020 17:15;934,3
08.01.2020 17:30;809,4
08.01.2020 17:45;1315,3
08.01.2020 18:00;1275,6
08.01.2020 18:15;1126,7
08.01.2020 18:30;929,9
08.01.2020 18:45;721,8
08.01.2020 19:00;580,1
08.01.2020 19:15;-157,4
08.01.2020 19:30;-305,1
08.01.2020 19:45;-314,9
08.01.2020 20:00;-290,3
08.01.2020 20:15;-183,8
08.01.2020 20:30;-128,2
08.01.2020 20:45;-69,3
08.01.2020 21:00;-29,6
08.01.2020 21:15;8,3
08.01.2020 21:30;36,1
08.01.2020 21:45;37,8
08.01.2020 22:00;59,7
08.01.2020 22:15;-2640,8
08.01.2020 22:30;-2611,5
08.01.2020 22:45;-2644,4
08.01.2020 23:00;-2512
08.01.2020 23:15;-2412,2
08.01.2020 23:30;-2261,9
08.01.2020 23:45;-2102,2
09.01.2020 00:00;-1895,2
09.01.2020 00:15;-1160,1
09.01.2020 00:30;-1012,9
09.01.2020 00:45;-870,1
09.01.2020 01:00;-718,5
09.01.2020 01:15;-570
09.01.2020 01:30;-371,3
09.01.2020 01:45;-284,5
09.01.2020 02:00;-138,1
09.01.2020 02:15;-128,4
09.01.2020 02:30;-231,9
09.01.2020 02:45;-269,9
09.01.2020 03:00;-333,5
09.01.2020 03:15;-338,8
09.01.2020 03:30;-353,7
09.01.2020 03:45;-392,4
09.01.2020 04:00;-441,6
09.01.2020 04:15;-447,3
09.01.2020 04:30;-499,4
09.01.2020 04:45;-594,4
09.01.2020 05:00;-608
09.01.2020 05:15;-614,5
09.01.2020 05:30;-680,9
09.01.2020 05:45;-696,5
09.01.2020 06:00;-802,1
09.01.2020 06:15;957,3
09.01.2020 06:30;799,7
09.01.2020 06:45;578,2
09.01.2020 07:00;348,4
09.01.2020 07:15;242,5
09.01.2020 07:30;75,9
09.01.2020 07:45;-2,9
09.01.2020 08:00;-117,5
09.01.2020 08:15;168
09.01.2020 08:30;34,3
09.01.2020 08:45;-19,5
09.01.2020 09:00;13,8
09.01.2020 09:15;-438
09.01.2020 09:30;-475,3
09.01.2020 09:45;-404,6
09.01.2020 10:00;-245,1
09.01.2020 10:15;-146,8
09.01.2020 10:30;-163,7
09.01.2020 10:45;412,5
09.01.2020 11:00;463,5
09.01.2020 11:15;511,8
09.01.2020 11:30;528,2
09.01.2020 11:45;504,8
09.01.2020 12:00;722,7
09.01.2020 12:15;241,1
09.01.2020 12:30;46,7
09.01.2020 12:45;-102,4
09.01.2020 13:00;-198,2
09.01.2020 13:15;-224,9
09.01.2020 13:30;-90,3
09.01.2020 13:45;-110,8
09.01.2020 14:00;42,8
09.01.2020 14:15;175,6
09.01.2020 14:30;250,8
09.01.2020 14:45;269
09.01.2020 15:00;338,2
09.01.2020 15:15;386,9
09.01.2020 15:30;399,2
09.01.2020 15:45;362,3
09.01.2020 16:00;429,4
09.01.2020 16:15;670,1
09.01.2020 16:30;773
09.01.2020 16:45;890,1
09.01.2020 17:00;1009,6
09.01.2020 17:15;1074
09.01.2020 17:30;1009,2
09.01.2020 17:45;1451,5
09.01.2020 18:00;1275,8
09.01.2020 18:15;1033,1
09.01.2020 18:30;876,4
09.01.2020 18:45;705,9
09.01.2020 19:00;577,1
09.01.2020 19:15;-9
09.01.2020 19:30;-113,1
09.01.2020 19:45;-204,2
09.01.2020 20:00;-145
09.01.2020 20:15;-145,5
09.01.2020 20:30;-131,7
09.01.2020 20:45;-52,6
09.01.2020 21:00;22,4
09.01.2020 21:15;60,3
09.01.2020 21:30;-12,4
09.01.2020 21:45;-1,1
09.01.2020 22:00;151
09.01.2020 22:15;-2056,8
09.01.2020 22:30;-1999,9
09.01.2020 22:45;-2010,8
09.01.2020 23:00;-1948,6
09.01.2020 23:15;-1850,3
09.01.2020 23:30;-1675
09.01.2020 23:45;-1544,4
10.01.2020 00:00;-1390,2
10.01.2020 00:15;-1421,4
10.01.2020 00:30;-1281,6
10.01.2020 00:45;-1097,1
10.01.2020 01:00;-915,8
10.01.2020 01:15;-802,5
10.01.2020 01:30;-677,4
10.01.2020 01:45;-516,4
10.01.2020 02:00;-392,4
10.01.2020 02:15;-320,8
10.01.2020 02:30;-396,8
10.01.2020 02:45;-450,1
10.01.2020 03:00;-521,1
10.01.2020 03:15;-530,3
10.01.2020 03:30;-525,9
10.01.2020 03:45;-579,1
10.01.2020 04:00;-602,8
10.01.2020 04:15;-619,7
10.01.2020 04:30;-691,2
10.01.2020 04:45;-702,2
10.01.2020 05:00;-828,9
10.01.2020 05:15;-857,6
10.01.2020 05:30;-864,3
10.01.2020 05:45;-917,5
10.01.2020 06:00;-1025,7
10.01.2020 06:15;935,6
10.01.2020 06:30;750,3
10.01.2020 06:45;439,8
10.01.2020 07:00;163,8
10.01.2020 07:15;23,8
10.01.2020 07:30;-32,8
10.01.2020 07:45;-32,6
10.01.2020 08:00;-122,6
10.01.2020 08:15;137,7
10.01.2020 08:30;12,6
10.01.2020 08:45;-69,9
10.01.2020 09:00;-60,7
10.01.2020 09:15;-596,5
10.01.2020 09:30;-473,5
10.01.2020 09:45;-365,1
10.01.2020 10:00;-327,6
10.01.2020 10:15;-346,6
10.01.2020 10:30;-324,5
10.01.2020 10:45;340,3
10.01.2020 11:00;340,9
10.01.2020 11:15;374,7
10.01.2020 11:30;448,4
10.01.2020 11:45;490
10.01.2020 12:00;605
10.01.2020 12:15;-67,2
10.01.2020 12:30;-102,4
10.01.2020 12:45;39,2
10.01.2020 13:00;-58,7
10.01.2020 13:15;-293,5
10.01.2020 13:30;-290,1
10.01.2020 13:45;-133,5
10.01.2020 14:00;-41,8
10.01.2020 14:15;169,8
10.01.2020 14:30;258,9
10.01.2020 14:45;446,6
10.01.2020 15:00;393,1
10.01.2020 15:15;439,9
10.01.2020 15:30;448,1
10.01.2020 15:45;434,1
10.01.2020 16:00;503,1
10.01.2020 16:15;778,9
10.01.2020 16:30;798,9
10.01.2020 16:45;856,4
10.01.2020 17:00;836,6
10.01.2020 17:15;971,4
10.01.2020 17:30;902,8
10.01.2020 17:45;1308,4
10.01.2020 18:00;1202,7
10.01.2020 18:15;921,6
10.01.2020 18:30;753
10.01.2020 18:45;601,4
10.01.2020 19:00;565,3
10.01.2020 19:15;-75,6
10.01.2020 19:30;-160,6
10.01.2020 19:45;-227,7
10.01.2020 20:00;-160,4
10.01.2020 20:15;-124,1
10.01.2020 20:30;-18,2
10.01.2020 20:45;-1,5
10.01.2020 21:00;46,1
10.01.2020 21:15;157,8
10.01.2020 21:30;190,6
10.01.2020 21:45;148,5
10.01.2020 22:00;213,9
10.01.2020 22:15;-2053
10.01.2020 22:30;-1997,6
10.01.2020 22:45;-2028,4
10.01.2020 23:00;-1907,5
10.01.2020 23:15;-1764,7
10.01.2020 23:30;-1598,4
10.01.2020 23:45;-1467,3
11.01.2020 00:00;-1239,9
11.01.2020 00:15;-1955,2
11.01.2020 00:30;-1888,7
11.01.2020 00:45;-1829,9
11.01.2020 01:00;-1773,7
11.01.2020 01:15;-1647,2
11.01.2020 01:30;-1393,8
11.01.2020 01:45;-1161,2
11.01.2020 02:00;-952,8